Location: Bouillancy
(49.1149°N, 2.9308°E)
Time: 08:28:26
(UTC+00:00)

YAOGAN 1 - Pass Details

Date: 30 September 2020
Orbit: 618 x 620 km, 97.9° (Epoch: 29 October)

Event Time Altitude Azimuth Distance (km) Brightness Sun altitude
Rises 18:35:32 0° 173° (S) 2,885 5.8 -11.8°
Reaches altitude 10° 18:37:44 10° 177° (S) 1,984 5.0 -12.2°
Maximum altitude 18:42:01 62° 259° (WSW) 703 3.1 -12.8°
Drops below altitude 10° 18:46:20 10° 340° (NNW) 2,000 5.6 -13.5°
Sets 18:48:33 0° 344° (NNW) 2,910 6.4 -13.9°
